Weather in Chuvashskiy Suskan

Russia / Ulyanovsk Oblast     53°52′56″N   49°12′21″E
temp.,
°C
wind,
m/s
gust,
m/s
humid.,
%
clouds,
%
prec.,
mm/h
press.,
hPa
HPBL,
m
4 march, thu
thu401:00−9wnw469388 0.0 1007102
04:00−11sw349472 0.0 100737
07:00−7sw479297 0.3 1005167
10:00−2sw7138797 0.3 1003598
13:000sw81384100 0.0 1000968
16:00+1wsw81493100 0.3 998747
19:00+1wsw81594100 0.1 998741
22:000wsw71493100 0.3 999573
5 march, fri
fri501:00−1wsw5996100 0.6 999337
04:00−3nw2398100 1.7 99994
07:00−3nnw2397100 0.8 100091
10:00−3nnw3594100 1.3 1002342
13:00−3nw4688100 0.1 1004478
16:00−6nw469070 0.1 1007204
19:00−11nw23910 0.0 100921
22:00−12w22920 0.0 101221
6 march, sat
sat601:00−12sw238823 0.0 101221
04:00−12sw238940 0.0 101225
07:00−10wsw229395 0.1 101242
10:00−9wnw359397 0.1 1013215
13:00−8nw4790100 0.0 1013393
16:00−9nw4790100 0.0 1012375
19:00−15nw459432 0.0 101342
22:00−16nw449230 0.0 101442
7 march, sun
sun701:00−17wnw449762 0.0 101440
04:00−19wnw349536 0.0 101537
07:00−19wsw23960 0.0 101524
10:00−15s34914 0.0 101598
13:00−10ssw7108944 0.0 1013483
16:00−8ssw8129172 0.1 1010557
19:00−7ssw91590100 0.2 1007622
22:00−6ssw101694100 0.9 1004875
8 march, mon
mon801:00−5ssw101790100 0.6 999808
04:00−4w81394100 1.3 999652
07:00−11wsw458272 0.3 100154
10:00−10ssw578535 0.3 1004157
13:00−7s58820 0.0 1003384
16:00−5s699528 0.1 1000492
19:00−6ssw5139591 1.2 999395
22:00−9w8168192 1.5 1002684